Location: Newark
(51.3318°N, 0.0053°E)
Time: 04:58:16
(UTC+00:00)

BlueWalker 3 - Pass Details

Date: 05 December 2022
Orbit: 499 x 517 km, 53.2° (Epoch: 28 January)

Event Time Altitude Azimuth Distance (km) Brightness Sun altitude
Rises 16:36:04 0° 272° (W) 2,635 6.8 -6.5°
Reaches altitude 10° 16:38:18 10° 275° (W) 1,745 5.7 -6.8°
Maximum altitude 16:42:13 65° 358° (N) 569 2.1 -7.3°
Drops below altitude 10° 16:46:08 10° 81° (E) 1,732 4.1 -7.9°
Enters shadow 16:46:18 - 82° (E) 1,801 4.1 -7.9°
